Weather History for Galena, AK

Change the Weather History Date:

Monday, May 27, 2013

  Actual Average Record
Temperature  
Mean Temperature 62 °F -  
Max Temperature 77 °F 59 °F 82 °F (2011)
Min Temperature 46 °F 41 °F 29 °F (1976)
Degree Days  
Heating Degree Days 4    
Growing Degree Days 12 (Base 50)    
Moisture  
Dew Point 37 °F    
Average Humidity 42    
Maximum Humidity 68    
Minimum Humidity 21    
Precipitation  
Precipitation 0.00 in - - ()
Sea Level Pressure  
Sea Level Pressure 29.82 in    
Wind  
Wind Speed 4 mph (South)    
Max Wind Speed 7 mph    
Max Gust Speed -    
Visibility 10 miles    
Events      
Averages and records for this station are not official NWS values.
T = Trace of Precipitation, MM = Missing Value Source: NWS Daily Summary

Daily Weather History Graph

Daily Weather History Graph

Search for Another Location

Airport:

Trip Planner

Search our weather history database for the weather conditions in past years. The results will help you decide how hot, cold, wet, or windy it might be!

Date:

Astronomy

May. 27, 2013 Rise Set
Actual Time 4:25 AM AKDT 12:27 AM AKDT
Civil Twilight 2:57 AM AKDT 1:52 AM AKDT
Nautical Twilight Sun does not rise Sun does not rise
Astronomical Twilight Sun does not rise Sun does not rise
Moon 1:51 AM AKDT (5/27) 7:49 AM AKDT (5/27)
Length of Visible Light 22h 55m
Length of Day
20h 02m
Waning Gibbous, 90% of the Moon is Illuminated
May 27
Waning Gibbous
May 31
Last Quarter
Jun 8
New
Jun 16
First Quarter
Jun 23
Full

Hourly Weather History & Observations

Time (AKDT) Temp. Dew Point Humidity Pressure Visibility Wind Dir Wind Speed Gust Speed Precip Events Conditions
12:58 AM 61.0 °F 39.0 °F 44% 29.81 in 10.0 mi North 6.9 mph - N/A   Clear
1:58 AM 57.9 °F 37.9 °F 47% 29.82 in 10.0 mi North 6.9 mph - N/A   Clear
2:58 AM 55.0 °F 37.0 °F 51% 29.83 in 10.0 mi NW 3.5 mph - N/A   Clear
3:58 AM 51.1 °F 37.9 °F 61% 29.84 in 10.0 mi NNW 3.5 mph - N/A   Clear
4:58 AM 48.9 °F 37.0 °F 64% 29.83 in 10.0 mi NNW 3.5 mph - N/A   Clear
5:58 AM 46.9 °F 37.0 °F 68% 29.84 in 10.0 mi NW 3.5 mph - N/A   Clear
6:58 AM 50.0 °F 37.9 °F 63% 29.84 in 10.0 mi Calm Calm - N/A   Clear
7:58 AM 53.1 °F 37.9 °F 57% 29.85 in 10.0 mi Calm Calm - N/A   Clear
8:58 AM 53.1 °F 39.0 °F 59% 29.85 in 10.0 mi SSE 3.5 mph - N/A   Clear
9:58 AM 55.9 °F 39.0 °F 53% 29.84 in 10.0 mi SSE 3.5 mph - N/A   Clear
10:58 AM 61.0 °F 39.0 °F 44% 29.83 in 10.0 mi South 3.5 mph - N/A   Clear
11:58 AM 66.0 °F 37.0 °F 34% 29.83 in 10.0 mi SE 3.5 mph - N/A   Clear
12:58 PM 70.0 °F 36.0 °F 29% 29.81 in 10.0 mi SE 3.5 mph - N/A   Clear
1:58 PM 72.0 °F 32.0 °F 23% 29.81 in 10.0 mi ESE 3.5 mph - N/A   Clear
2:58 PM 73.9 °F 33.1 °F 22% 29.80 in 10.0 mi Variable 3.5 mph - N/A   Clear
3:58 PM 75.0 °F 33.1 °F 22% 29.80 in 10.0 mi SSW 4.6 mph - N/A   Clear
4:58 PM 75.9 °F 33.1 °F 21% 29.78 in 10.0 mi South 3.5 mph - N/A   Clear
5:58 PM 77.0 °F 35.1 °F 22% 29.78 in 10.0 mi Calm Calm - N/A   Clear
6:58 PM 75.9 °F 35.1 °F 23% 29.77 in 10.0 mi South 3.5 mph - N/A   Clear
7:58 PM 75.0 °F 37.0 °F 25% 29.76 in 10.0 mi SSE 5.8 mph - N/A   Clear